Pleasanton, CA

6:24 PM PST on December 03, 2016 (GMT -0800)
Livermore Municipal

Weather History for KLVK - July, 2012

Change the Weather History Date:

Wednesday, July 11, 2012

  Actual Average Record
Temperature  
Mean Temperature 83 °F 72 °F  
Max Temperature 104 °F 88 °F 111 °F (1961)
Min Temperature 61 °F 57 °F 46 °F (1935)
Degree Days  
Heating Degree Days 0 0  
Month to date heating degree days 0 0  
Since 1 June heating degree days 37 32  
Since 1 July heating degree days 0 0  
Cooling Degree Days 18 7  
Month to date cooling degree days 77 74  
Year to date cooling degree days 287 237  
Since 1 June cooling degree days 213 184  
Growing Degree Days 32 (Base 50)    
Moisture  
Dew Point 44 °F    
Average Humidity 32    
Maximum Humidity 55    
Minimum Humidity 9    
Precipitation  
Precipitation 0.00 in 0.00 in 0.00 in (2016)
Month to date precipitation T 0.00  
Year to date precipitation 7.06 9.90  
Since 1 July precipitation T  
Sea Level Pressure  
Sea Level Pressure 29.81 in    
Wind  
Wind Speed 5 mph (West)    
Max Wind Speed 15 mph    
Max Gust Speed 20 mph    
Visibility 10 miles    
Events      
T = Trace of Precipitation, MM = Missing Value Source: NWS Daily Summary

Daily Weather History Graph

Daily Weather History Graph

Search for Another Location

Airport or City:

Trip Planner

Search our weather history database for the weather conditions in past years. The results will help you decide how hot, cold, wet, or windy it might be!

Date:

Astronomy

Jul. 11, 2012 Rise Set
Actual Time 5:55 AM PDT 8:30 PM PDT
Civil Twilight 5:24 AM PDT 9:00 PM PDT
Nautical Twilight 4:46 AM PDT 9:38 PM PDT
Astronomical Twilight 4:04 AM PDT 10:21 PM PDT
Moon 12:28 AM PDT (7/11) 2:13 PM PDT (7/11)
Length of Visible Light 15h 36m
Length of Day
14h 34m
Last Quarter, 43% of the Moon is Illuminated
Jul 11
Last Quarter
Jul 18
New
Jul 26
First Quarter
Aug 1
Full
Aug 9
Last Quarter

Hourly Weather History & Observations

Time (PDT) Temp. Dew Point Humidity Pressure Visibility Wind Dir Wind Speed Gust Speed Precip Events Conditions
12:53 AM 68.0 °F 45.0 °F 43% 29.84 in 10.0 mi Calm Calm - N/A   Clear
1:53 AM 66.9 °F 45.0 °F 45% 29.84 in 10.0 mi Calm Calm - N/A   Clear
2:53 AM 64.9 °F 45.0 °F 48% 29.83 in 10.0 mi Calm Calm - N/A   Clear
3:53 AM 63.0 °F 45.0 °F 52% 29.83 in 10.0 mi Calm Calm - N/A   Clear
4:53 AM 63.0 °F 45.0 °F 52% 29.83 in 10.0 mi Calm Calm - N/A   Clear
5:53 AM 61.0 °F 44.1 °F 54% 29.84 in 10.0 mi Calm Calm - N/A   Clear
6:53 AM 63.0 °F 44.1 °F 50% 29.84 in 10.0 mi Calm Calm - N/A   Clear
7:53 AM 68.0 °F 46.9 °F 47% 29.85 in 10.0 mi WNW 3.5 mph - N/A   Clear
8:53 AM 72.0 °F 48.9 °F 44% 29.86 in 10.0 mi West 3.5 mph - N/A   Clear
9:53 AM 78.1 °F 50.0 °F 37% 29.85 in 10.0 mi Calm Calm - N/A   Clear
10:53 AM 84.9 °F 46.0 °F 26% 29.85 in 10.0 mi SW 3.5 mph - N/A   Clear
11:53 AM 90.0 °F 44.1 °F 20% 29.83 in 10.0 mi South 4.6 mph - N/A   Clear
12:53 PM 95.0 °F 44.1 °F 17% 29.83 in 10.0 mi SW 4.6 mph - N/A   Clear
1:53 PM 100.0 °F 32.0 °F 9% 29.81 in 10.0 mi Variable 4.6 mph - N/A   Clear
2:53 PM 102.0 °F 44.1 °F 14% 29.79 in 10.0 mi West 4.6 mph - N/A   Clear
3:53 PM 102.9 °F 42.1 °F 13% 29.78 in 10.0 mi West 11.5 mph - N/A   Clear
4:53 PM 102.9 °F 39.0 °F 11% 29.76 in 10.0 mi West 12.7 mph - N/A   Clear
5:53 PM 100.9 °F 37.9 °F 11% 29.76 in 10.0 mi WNW 12.7 mph - N/A   Clear
6:53 PM 98.1 °F 37.9 °F 12% 29.75 in 10.0 mi West 11.5 mph - N/A   Clear
7:53 PM 91.9 °F 46.9 °F 21% 29.75 in 10.0 mi WNW 10.4 mph - N/A   Clear
8:53 PM 84.9 °F 48.0 °F 28% 29.77 in 10.0 mi WNW 10.4 mph - N/A   Clear
9:53 PM 80.1 °F 46.9 °F 31% 29.80 in 10.0 mi West 9.2 mph - N/A   Clear
10:53 PM 77.0 °F 48.9 °F 37% 29.81 in 10.0 mi NW 4.6 mph - N/A   Clear
11:53 PM 75.9 °F 50.0 °F 40% 29.81 in 10.0 mi NNW 3.5 mph - N/A   Clear